Location: Wellington
(41.3000°S, 174.8000°E)
Time: 10:39:30
(UTC+13:00)

ISS - Visible Passes

Search period start: 28 February 2024 00:00
Search period end: 09 March 2024 00:00
Orbit: 414 x 422 km, 51.6° (Epoch: 27 February)

Date Brightness Start Highest point End Pass type
(mag) Time Alt. Az. Time Alt. Az. Time Alt. Az.
28 Feb -3.7 21:19:02 10° WSW 21:22:26 76° NW 21:24:02 29° NE visible
29 Feb -3.6 20:31:09 10° SW 20:34:32 65° SSE 20:37:55 10° ENE visible
29 Feb -1.3 22:08:54 10° W 22:10:58 15° NW 22:11:06 15° NW visible
01 Mar -1.9 21:20:19 10° WSW 21:23:12 26° NW 21:25:18 15° N visible
02 Mar -2.8 20:32:04 10° WSW 20:35:19 44° NW 20:38:33 10° NNE visible
04 Mar -1.0 20:33:34 10° W 20:35:43 16° NW 20:37:50 10° N visible
